TimeCST,TemperatureF,Dew PointF,Humidity,Sea Level PressureIn,VisibilityMPH,Wind Direction,Wind SpeedMPH,Gust SpeedMPH,PrecipitationIn,Events,Conditions,WindDirDegrees,DateUTC
12:15 AM,57.2,51.8,82,30.17,10.0,ESE,3.5,-,N/A,,Clear,110,2013-01-24 06:15:00
12:35 AM,55.4,51.8,88,30.17,10.0,East,4.6,-,N/A,,Clear,90,2013-01-24 06:35:00
12:55 AM,57.2,51.8,82,30.17,10.0,ESE,3.5,-,N/A,,Clear,120,2013-01-24 06:55:00
1:15 AM,55.4,51.8,88,30.17,10.0,SSE,3.5,-,N/A,,Clear,150,2013-01-24 07:15:00
1:55 AM,53.6,50.0,88,30.16,10.0,Calm,Calm,-,N/A,,Clear,0,2013-01-24 07:55:00
2:15 AM,55.4,51.8,88,30.16,10.0,Calm,Calm,-,N/A,,Clear,0,2013-01-24 08:15:00
2:35 AM,55.4,51.8,88,30.16,10.0,Calm,Calm,-,N/A,,Clear,0,2013-01-24 08:35:00
2:55 AM,51.8,46.4,82,30.17,10.0,Calm,Calm,-,N/A,,Clear,0,2013-01-24 08:55:00
3:15 AM,51.8,50.0,94,30.17,10.0,Calm,Calm,-,N/A,,Clear,0,2013-01-24 09:15:00
3:35 AM,53.6,50.0,88,30.17,10.0,ESE,3.5,-,N/A,,Clear,120,2013-01-24 09:35:00
3:55 AM,53.6,50.0,88,30.17,10.0,East,3.5,-,N/A,,Clear,100,2013-01-24 09:55:00
4:15 AM,53.6,50.0,88,30.17,10.0,ESE,5.8,-,N/A,,Clear,120,2013-01-24 10:15:00
4:35 AM,53.6,50.0,88,30.17,10.0,ESE,4.6,-,N/A,,Clear,120,2013-01-24 10:35:00
4:55 AM,51.8,50.0,94,30.17,10.0,SE,3.5,-,N/A,,Clear,130,2013-01-24 10:55:00
5:15 AM,50.0,48.2,94,30.17,7.0,SE,5.8,-,N/A,,Clear,140,2013-01-24 11:15:00
5:35 AM,50.0,48.2,94,30.17,7.0,Calm,Calm,-,N/A,,Clear,0,2013-01-24 11:35:00
5:55 AM,51.8,48.2,88,30.17,7.0,SE,3.5,-,N/A,,Clear,130,2013-01-24 11:55:00
6:15 AM,51.8,50.0,94,30.17,7.0,ESE,4.6,-,N/A,,Clear,120,2013-01-24 12:15:00
6:35 AM,51.8,50.0,94,30.17,7.0,East,3.5,-,N/A,,Clear,100,2013-01-24 12:35:00
6:55 AM,50.0,48.2,94,30.18,5.0,ESE,3.5,-,N/A,,Clear,110,2013-01-24 12:55:00
7:15 AM,50.0,48.2,94,30.18,5.0,Calm,Calm,-,N/A,,Clear,0,2013-01-24 13:15:00
7:55 AM,48.2,46.4,93,30.19,0.2,Calm,Calm,-,N/A,Fog,Fog,0,2013-01-24 13:55:00
8:15 AM,48.2,46.4,93,30.19,1.5,Calm,Calm,-,N/A,,Mist,0,2013-01-24 14:15:00
8:35 AM,51.8,50.0,94,30.18,5.0,Calm,Calm,-,N/A,,Clear,0,2013-01-24 14:35:00
8:55 AM,53.6,51.8,94,30.18,7.0,ESE,4.6,-,N/A,,Clear,120,2013-01-24 14:55:00
9:15 AM,55.4,53.6,94,30.18,10.0,ESE,4.6,-,N/A,,Clear,110,2013-01-24 15:15:00
9:35 AM,59.0,53.6,82,30.18,10.0,East,3.5,-,N/A,,Clear,100,2013-01-24 15:35:00
9:55 AM,60.8,55.4,82,30.19,10.0,ESE,3.5,-,N/A,,Clear,110,2013-01-24 15:55:00
10:15 AM,62.6,55.4,77,30.19,10.0,Calm,Calm,-,N/A,,Clear,0,2013-01-24 16:15:00
10:35 AM,69.8,57.2,64,30.18,10.0,WSW,6.9,-,N/A,,Clear,240,2013-01-24 16:35:00
10:55 AM,71.6,55.4,57,30.18,10.0,WSW,9.2,-,N/A,,Clear,240,2013-01-24 16:55:00
11:15 AM,75.2,55.4,50,30.17,10.0,WSW,9.2,-,N/A,,Clear,240,2013-01-24 17:15:00
11:35 AM,77.0,53.6,44,30.16,10.0,SW,10.4,-,N/A,,Clear,220,2013-01-24 17:35:00
11:55 AM,77.0,53.6,44,30.15,10.0,SW,10.4,-,N/A,,Clear,220,2013-01-24 17:55:00
12:15 PM,78.8,53.6,42,30.14,10.0,SW,10.4,-,N/A,,Clear,230,2013-01-24 18:15:00
12:35 PM,78.8,53.6,42,30.13,10.0,SW,6.9,-,N/A,,Clear,230,2013-01-24 18:35:00
12:55 PM,80.6,51.8,37,30.12,10.0,West,9.2,-,N/A,,Clear,260,2013-01-24 18:55:00
1:15 PM,80.6,50.0,34,30.10,10.0,SW,12.7,-,N/A,,Clear,230,2013-01-24 19:15:00
1:35 PM,82.4,50.0,32,30.09,10.0,SW,9.2,17.3,N/A,,Clear,230,2013-01-24 19:35:00
1:55 PM,82.4,48.2,30,30.08,10.0,SW,8.1,-,N/A,,Clear,230,2013-01-24 19:55:00
2:15 PM,84.2,48.2,29,30.07,10.0,WSW,10.4,-,N/A,,Clear,240,2013-01-24 20:15:00
2:35 PM,84.2,48.2,29,30.07,10.0,SW,11.5,-,N/A,,Clear,220,2013-01-24 20:35:00
2:55 PM,84.2,46.4,27,30.06,10.0,SW,13.8,18.4,N/A,,Clear,220,2013-01-24 20:55:00
3:15 PM,84.2,46.4,27,30.05,10.0,SW,11.5,17.3,N/A,,Clear,220,2013-01-24 21:15:00
3:35 PM,84.2,46.4,27,30.05,10.0,WSW,12.7,18.4,N/A,,Clear,240,2013-01-24 21:35:00
3:55 PM,84.2,46.4,27,30.05,10.0,SW,5.8,-,N/A,,Clear,230,2013-01-24 21:55:00
4:15 PM,84.2,46.4,27,30.04,10.0,SSW,10.4,-,N/A,,Clear,200,2013-01-24 22:15:00
4:55 PM,82.4,44.6,26,30.04,10.0,SSW,9.2,-,N/A,,Clear,210,2013-01-24 22:55:00
5:15 PM,78.8,48.2,34,30.04,10.0,WNW,9.2,-,N/A,,Clear,300,2013-01-24 23:15:00
5:35 PM,73.4,50.0,44,30.05,10.0,NW,6.9,-,N/A,,Clear,320,2013-01-24 23:35:00
5:55 PM,71.6,48.2,43,30.05,10.0,NW,5.8,-,N/A,,Clear,310,2013-01-24 23:55:00
6:15 PM,69.8,48.2,46,30.06,10.0,NNW,5.8,-,N/A,,Clear,330,2013-01-25 00:15:00
6:35 PM,68.0,48.2,49,30.07,10.0,NW,6.9,-,N/A,,Clear,310,2013-01-25 00:35:00
6:55 PM,64.4,48.2,56,30.07,10.0,NW,3.5,-,N/A,,Clear,310,2013-01-25 00:55:00
7:15 PM,62.6,46.4,55,30.08,10.0,NNW,6.9,-,N/A,,Clear,330,2013-01-25 01:15:00
7:35 PM,60.8,46.4,59,30.08,10.0,NNW,5.8,-,N/A,,Clear,330,2013-01-25 01:35:00
7:55 PM,59.0,46.4,63,30.08,10.0,NW,5.8,-,N/A,,Clear,310,2013-01-25 01:55:00
8:15 PM,59.0,44.6,59,30.08,10.0,NW,4.6,-,N/A,,Clear,320,2013-01-25 02:15:00
8:35 PM,57.2,44.6,63,30.08,10.0,NW,4.6,-,N/A,,Clear,310,2013-01-25 02:35:00
8:55 PM,55.4,44.6,67,30.09,10.0,West,4.6,-,N/A,,Clear,270,2013-01-25 02:55:00
9:15 PM,53.6,44.6,72,30.09,10.0,West,3.5,-,N/A,,Clear,270,2013-01-25 03:15:00
9:35 PM,53.6,42.8,67,30.09,10.0,WNW,4.6,-,N/A,,Clear,300,2013-01-25 03:35:00
9:55 PM,51.8,42.8,71,30.08,10.0,West,3.5,-,N/A,,Clear,260,2013-01-25 03:55:00
10:15 PM,51.8,42.8,71,30.07,10.0,Calm,Calm,-,N/A,,Clear,0,2013-01-25 04:15:00
10:35 PM,50.0,42.8,76,30.07,10.0,West,4.6,-,N/A,,Clear,260,2013-01-25 04:35:00
10:55 PM,50.0,42.8,76,30.08,10.0,WSW,5.8,-,N/A,,Clear,240,2013-01-25 04:55:00
11:15 PM,50.0,42.8,76,30.08,10.0,WSW,5.8,-,N/A,,Clear,240,2013-01-25 05:15:00
11:35 PM,50.0,42.8,76,30.08,10.0,West,4.6,-,N/A,,Clear,260,2013-01-25 05:35:00
11:55 PM,48.2,42.8,82,30.09,10.0,West,4.6,-,N/A,,Clear,280,2013-01-25 05:55:00